Temperature
15 15 15 15 14 14 14 14 14 14 14 14 14 14 13 13 13 13 13 13 13 13 13 13 13 12 12 12 12 12 11 11 11 11 11 11 11 11 11 10 10 10 10
15 14 14 14 14 14 14 14 14 14 14 13 13 13 13 13 13 13 13 13 13 13 13 12 12 12 12 12 12 11 11 11 11 11 11 11 11 10 10 10 10 10 10
14 14 14 14 14 13 13 13 13 13 13 13 13 13 13 13 13 13 13 12 12 12 12 12 12 12 12 12 12 11 11 11 11 11 11 10 10 10 10 10 10 10 10
13 13 13 13 13 13 13 13 13 13 13 13 13 13 13 12 12 12 12 12 12 12 12 12 12 12 12 11 11 11 11 11 11 10 10 10 10 10 10 10 10 10 10
13 13 13 13 13 13 13 13 13 13 12 12 12 12 12 12 12 12 12 12 12 12 12 12 12 11 11 11 11 11 11 11 11 10 10 10 10 10 10 10 10 9 9
13 13 13 12 12 12 12 12 12 12 12 12 12 12 12 12 12 12 12 12 12 11 11 11 11 11 11 11 11 11 11 10 10 10 10 10 10 10 9 9 9 9 9
12 12 12 12 12 12 12 12 12 12 12 12 11 11 11 11 11 11 11 11 11 11 11 11 11 11 11 11 11 10 10 10 10 10 10 10 10 10 9 9 9 9 9
12 12 12 11 11 11 11 11 11 11 11 11 11 11 11 11 11 11 11 11 11 11 11 11 11 11 11 10 10 10 10 10 10 10 10 9 9 9 9 9 9 8 8
11 11 11 11 11 11 11 11 11 11 11 11 11 11 11 11 11 10 10 10 10 10 10 10 10 10 10 10 10 10 10 10 10 10 9 9 9 9 9 9 8 8 8
11 10 10 10 10 10 10 10 10 10 10 10 10 10 10 10 10 10 10 10 10 10 10 10 10 10 10 9 9 9 9 9 9 9 9 9 9 9 9 8 8 8 8
10 10 10 10 10 10 10 10 10 10 10 10 10 10 10 9 9 9 9 9 9 9 9 9 9 9 9 9 9 9 9 9 9 9 9 9 9 9 8 8 8 8 7
9 9 9 9 9 9 9 9 9 9 9 9 9 9 9 9 9 9 9 9 9 9 9 9 9 9 9 9 9 8 8 8 9 8 8 8 8 8 8 8 8 7 7
9 8 8 8 8 8 8 9 9 8 8 8 8 8 8 8 8 8 8 8 8 8 8 8 8 8 8 8 8 8 8 8 8 8 8 8 8 8 8 8 7 7 7
8 8 8 8 8 8 8 8 8 8 8 8 8 8 8 8 8 7 8 8 8 8 8 8 8 8 8 8 8 7 7 7 7 7 7 7 7 7 7 7 7 7 7
7 7 7 7 7 7 7 7 7 7 7 7 7 7 7 7 7 7 7 7 7 7 7 7 7 7 7 7 7 7 7 7 7 7 7 7 7 7 7 7 6 6 6
6 6 6 6 6 6 6 6 6 6 6 6 6 6 6 6 6 6 6 6 6 6 6 7 7 7 7 7 7 7 6 6 6 6 6 6 6 6 6 6 6 6 5
5 5 5 5 5 5 5 5 6 6 6 6 6 6 6 6 6 6 6 6 6 6 6 6 6 6 6 6 6 6 6 6 6 6 6 6 6 6 5 5 5 5 5
5 5 5 5 5 5 5 5 5 5 5 5 5 5 5 5 6 6 6 5 6 6 6 6 6 6 6 6 6 6 6 6 5 5 5 5 5 5 5 5 5 5 5
4 4 4 4 4 4 4 4 4 4 4 5 5 5 5 5 5 5 5 5 5 5 5 5 5 6 6 5 5 5 5 5 5 5 5 5 5 5 5 5 4 4 4
3 3 3 3 3 3 3 3 3 3 4 4 4 4 4 4 4 4 4 4 4 5 5 5 5 5 5 5 5 5 5 5 5 5 4 4 4 4 4 4 4 4 4
3 3 3 3 3 3 3 3 3 3 3 3 3 3 3 3 3 4 4 4 4 4 4 4 4 4 5 5 5 5 5 4 4 4 4 4 4 4 4 4 3 3 3
2 2 2 2 2 2 2 2 2 2 2 2 2 3 3 3 3 3 3 3 3 4 4 4 4 4 4 4 4 4 4 4 4 4 4 4 3 3 3 3 3 3 3
2 2 2 2 2 1 1 1 1 1 1 2 2 2 2 2 2 3 3 3 3 3 3 3 3 3 3 4 4 4 4 4 4 4 4 3 3 3 3 3 3 3 2
2 1 1 1 1 1 1 1 1 1 1 1 1 1 1 2 2 2 2 2 2 2 2 3 3 3 3 3 3 3 3 3 3 3 3 3 3 3 2 2 2 2 2
1 1 1 1 1 0 0 0 0 0 0 0 1 1 1 1 1 2 2 2 2 2 2 2 2 2 2 2 3 3 3 3 2 2 3 2 2 2 2 2 2 2 2
1 0 0 0 0 0 -0 -0 -0 -0 -0 0 0 0 0 1 1 1 1 1 1 1 1 1 2 2 2 2 2 2 2 2 2 2 2 2 2 2 2 2 2 1 1
Wind_Speed
2 2 2 2 2 2 2 3 3 2 2 2 2 2 2 2 2 2 2 2 3 3 2 3 3 3 2 2 2 2 2 2 3 3 2 1 1 2 3 2 2 2 2
2 3 2 2 2 2 1 2 2 2 2 2 2 2 1 2 2 3 3 2 3 3 3 3 3 3 3 3 3 3 3 3 3 3 2 1 2 2 2 2 2 2 2
2 2 2 2 3 2 2 1 1 2 1 1 2 2 2 2 2 2 3 3 3 3 4 4 4 4 4 3 3 3 3 2 2 2 2 1 1 1 1 2 2 2 2
2 2 2 2 3 3 2 1 1 1 2 1 1 2 2 1 2 2 2 3 2 2 3 4 4 5 5 5 4 4 3 2 2 2 1 1 1 1 1 1 2 1 2
2 2 2 2 2 2 2 1 1 1 1 1 1 1 1 1 2 2 3 3 3 2 2 3 3 4 5 4 3 4 4 3 2 2 2 1 1 0 1 1 1 1 2
2 2 1 1 2 1 1 2 1 1 1 1 1 1 1 1 2 2 3 3 3 3 3 3 3 3 4 5 5 5 5 5 4 3 3 3 3 3 2 1 1 0 2
2 2 1 1 2 2 1 1 1 1 1 1 1 1 2 3 3 3 3 3 3 3 3 3 2 2 2 2 3 3 4 5 6 5 5 5 4 5 4 2 2 2 2
2 1 1 1 1 1 1 2 2 2 2 2 2 2 3 3 3 3 3 2 3 3 3 3 3 2 2 2 2 1 2 3 5 4 5 5 4 4 5 4 4 2 0
1 1 1 2 2 2 2 3 2 2 2 3 2 2 3 3 3 3 2 2 2 2 2 2 3 2 2 1 2 2 2 2 3 3 4 3 3 4 5 3 2 1 1
2 2 2 2 2 3 3 3 2 2 3 3 2 2 3 3 3 3 3 2 1 1 2 2 2 2 3 2 2 2 2 3 1 0 0 0 0 2 5 4 4 3 1
1 1 1 2 2 3 2 2 2 2 2 2 2 2 2 2 2 2 2 2 3 2 2 2 2 3 3 3 2 3 3 2 2 2 1 0 0 0 1 2 3 3 3
1 1 1 2 2 1 1 2 2 2 2 2 2 2 2 2 2 2 2 2 2 3 3 3 3 4 4 4 2 2 2 1 2 2 1 1 1 2 2 2 2 2 2
2 2 2 2 2 1 1 2 1 2 2 2 2 2 2 2 2 3 3 3 3 3 3 3 3 3 3 2 3 3 2 2 2 2 2 2 2 2 1 1 0 0 1
2 2 2 2 2 2 2 1 1 2 2 2 3 3 3 2 2 2 2 3 3 3 2 2 2 2 1 1 1 2 2 2 3 3 2 2 1 1 1 1 1 1 0
2 2 2 2 2 2 2 2 2 3 3 3 3 3 3 3 4 3 2 3 3 3 1 1 1 1 1 1 1 1 2 2 2 2 2 1 1 1 1 1 1 1 2
2 2 2 2 2 2 2 3 3 2 3 3 4 3 3 4 4 3 4 4 3 2 2 2 2 3 3 3 3 2 2 2 3 2 2 2 2 2 2 1 1 2 3
1 2 2 2 2 2 2 2 3 4 3 3 3 3 3 4 4 3 3 3 2 3 2 2 2 3 3 3 3 3 3 3 3 3 3 3 3 3 2 2 2 3 3
1 2 2 2 2 2 2 2 2 2 3 3 4 4 4 4 4 3 2 0 1 2 2 3 3 3 3 3 3 3 3 2 2 3 3 3 3 3 3 3 3 4 4
1 1 2 2 1 1 2 2 2 2 2 3 3 4 5 4 3 2 1 1 2 3 3 3 3 3 3 3 3 3 2 3 3 2 3 3 3 3 4 4 4 5 4
1 3 2 2 1 1 2 2 2 2 2 2 3 3 3 2 1 1 1 2 2 3 3 3 3 3 3 3 3 2 2 2 3 3 3 3 3 3 4 5 4 4 4
2 2 3 2 2 2 2 2 2 2 3 3 3 4 3 2 2 2 2 2 3 3 3 3 3 3 3 3 2 3 3 3 3 3 3 3 3 3 4 4 4 4 4
1 1 1 1 2 2 2 2 2 3 3 3 3 3 4 2 2 2 2 3 3 3 3 2 3 3 3 3 3 3 4 4 4 3 3 3 3 3 3 3 4 4 4
1 1 1 1 2 3 3 2 2 3 3 3 3 3 2 2 3 3 3 3 3 3 3 2 3 3 3 3 3 4 4 4 4 4 4 4 4 4 4 4 4 4 4
1 1 1 2 2 2 2 3 3 3 3 3 3 3 3 3 3 4 4 4 3 3 3 3 4 5 5 5 4 4 5 5 5 4 5 5 4 4 4 4 4 5 5
1 1 1 2 2 2 2 3 3 3 4 4 4 3 3 3 4 4 4 4 4 4 4 5 4 5 6 6 5 5 5 6 5 4 4 4 4 4 4 5 4 5 5
1 1 1 2 2 2 2 3 3 4 4 4 4 4 4 4 4 4 4 4 4 4 4 4 5 6 6 5 5 5 5 5 5 6 4 3 4 4 4 4 5 5 5
Wind_Direction
145 150 143 155 150 156 175 196 200 196 180 176 189 183 192 202 184 176 195 187 191 198 188 184 202 186 180 179 170 165 172 165 209 261 261 289 289 308 327 331 316 324 330
169 155 150 154 149 153 184 204 194 198 195 184 176 185 205 208 188 181 196 190 197 207 207 194 209 195 192 192 185 191 196 189 191 234 261 268 272 290 308 323 331 321 311
161 162 156 152 159 176 206 222 206 196 186 157 153 182 206 210 198 199 195 199 204 213 210 205 209 190 205 206 197 200 203 196 190 196 238 249 276 328 346 334 344 341 321
149 162 175 186 184 189 197 197 189 173 159 164 178 191 203 205 205 204 194 203 209 225 227 219 208 205 209 203 203 206 193 181 170 178 210 245 268 329 31 341 335 333 325
151 171 209 203 183 171 177 181 174 168 179 187 180 210 219 214 223 213 205 205 205 227 247 241 228 219 215 204 205 199 183 184 178 182 198 207 243 268 259 243 262 309 311
170 196 200 165 161 165 194 190 175 189 189 159 188 217 231 249 262 226 204 206 206 215 239 250 242 219 221 221 220 203 187 183 190 191 203 213 232 224 212 204 189 69 293
186 194 178 156 170 190 201 189 195 210 195 210 230 221 241 258 262 241 215 193 208 218 222 224 233 226 211 216 226 220 219 215 196 188 197 218 219 212 186 193 204 216 235
193 206 188 181 198 206 186 215 234 224 214 224 241 238 246 268 277 263 233 191 210 224 218 214 218 223 211 197 193 201 236 242 229 215 208 219 222 203 191 195 201 196 244
219 244 238 213 216 220 224 234 234 223 232 236 242 243 245 268 265 248 196 170 202 236 237 225 215 214 225 184 166 192 238 275 266 226 225 225 212 186 160 136 139 141 244
248 249 247 225 221 232 240 242 236 229 233 239 246 243 241 253 257 223 184 165 187 234 244 241 231 215 207 189 179 185 215 246 226 198 202 294 156 174 176 175 179 180 194
289 283 262 243 240 242 244 244 238 231 236 238 245 254 251 260 266 235 196 172 198 212 223 229 229 219 217 212 201 200 216 209 182 176 174 170 90 125 195 201 194 191 199
16 355 317 292 273 272 239 242 225 212 216 238 251 278 272 267 262 250 237 232 229 210 226 229 228 219 216 220 216 211 202 140 147 153 168 218 218 227 231 216 219 224 228
32 7 337 332 323 300 258 254 244 214 210 230 233 253 274 274 275 273 253 253 259 237 235 241 240 222 207 209 211 197 179 160 165 189 213 234 234 227 195 160 133 75 3
22 348 341 345 337 336 315 278 244 229 225 229 235 245 260 266 261 255 242 245 245 242 242 246 247 218 195 199 204 209 203 193 193 210 224 229 200 178 193 190 193 205 287
8 342 331 330 330 333 327 299 262 239 223 225 230 229 238 258 263 259 237 242 230 227 205 158 174 185 196 213 217 218 202 195 210 210 201 210 209 207 225 207 194 183 202
4 345 327 322 328 331 331 333 325 285 282 267 257 244 246 255 282 280 267 271 255 189 150 187 210 216 221 222 224 229 218 216 217 210 203 203 212 219 227 222 211 208 224
338 323 321 326 328 324 326 327 324 330 330 329 321 298 281 286 283 275 263 260 222 165 173 208 222 232 234 229 225 224 233 230 217 209 212 213 211 216 221 227 227 227 237
335 329 334 309 302 305 308 308 305 307 313 316 322 321 314 311 305 291 268 168 211 191 203 217 231 237 235 230 229 235 237 229 218 217 217 217 213 216 225 228 229 234 238
326 317 319 313 308 313 316 316 317 313 303 301 315 321 321 315 317 318 124 184 223 230 231 235 238 239 240 234 232 231 230 229 228 221 221 222 218 217 228 231 233 241 240
304 325 343 342 339 331 325 321 318 312 306 302 305 310 322 335 333 322 268 246 241 242 244 245 246 242 237 233 230 224 223 226 224 227 231 231 226 223 230 234 236 236 238
304 313 335 339 324 312 310 312 308 305 298 294 291 298 308 295 287 280 271 266 257 253 252 251 249 246 241 235 231 231 231 233 231 230 233 236 233 235 236 234 236 238 242
301 297 300 299 301 304 306 302 296 295 298 297 309 316 317 307 294 288 277 276 273 268 264 262 263 257 246 239 232 230 235 239 238 235 236 236 232 237 242 241 240 240 242
292 293 299 301 301 310 315 314 309 306 301 296 301 309 308 293 288 286 284 282 281 281 276 260 257 267 269 259 245 233 232 236 238 235 233 237 235 235 235 238 241 244 244
1 328 310 312 317 316 308 307 304 299 297 295 294 293 291 285 283 282 281 283 284 282 281 271 260 259 262 263 258 250 246 243 237 231 231 233 234 236 236 238 239 241 245
14 339 317 304 297 291 291 296 297 295 294 295 296 296 295 288 285 284 283 281 279 277 277 277 273 265 261 261 260 256 251 248 246 241 232 230 229 232 236 237 240 240 246
356 335 315 305 298 291 287 290 293 294 292 295 295 292 293 291 289 288 286 282 277 276 277 280 274 269 269 267 259 252 251 251 248 246 238 231 228 233 233 236 240 240 242
Height
1512 1514 1515 1516 1517 1518 1519 1520 1520 1521 1521 1521 1521 1522 1523 1523 1523 1524 1524 1525 1526 1526 1527 1527 1527 1528 1528 1528 1528 1528 1528 1528 1527 1526 1526 1526 1525 1524 1524 1523 1522 1522 1521
1511 1512 1513 1514 1515 1516 1516 1517 1518 1518 1519 1519 1519 1519 1520 1520 1520 1521 1521 1522 1523 1523 1524 1524 1525 1525 1526 1526 1526 1525 1525 1525 1525 1524 1524 1523 1523 1522 1522 1521 1521 1520 1519
1509 1510 1511 1512 1512 1513 1514 1515 1515 1515 1516 1516 1516 1516 1517 1517 1517 1518 1518 1519 1519 1520 1520 1521 1522 1522 1522 1523 1523 1523 1523 1522 1522 1521 1521 1521 1521 1520 1519 1519 1518 1518 1517
1507 1508 1508 1509 1510 1511 1512 1512 1512 1513 1513 1513 1513 1513 1514 1514 1514 1514 1515 1515 1516 1516 1517 1518 1518 1519 1519 1519 1519 1519 1520 1519 1519 1519 1518 1518 1518 1518 1517 1516 1516 1516 1515
1505 1505 1506 1506 1507 1508 1509 1510 1510 1510 1510 1510 1511 1511 1511 1511 1511 1511 1511 1512 1512 1513 1514 1514 1515 1515 1516 1516 1516 1516 1516 1516 1516 1515 1515 1515 1515 1515 1514 1514 1514 1513 1513
1503 1503 1504 1504 1504 1505 1506 1507 1507 1507 1507 1507 1507 1508 1508 1508 1508 1508 1508 1508 1508 1509 1510 1510 1511 1512 1512 1513 1513 1513 1513 1513 1512 1512 1512 1512 1512 1512 1512 1512 1511 1511 1510
1500 1501 1501 1501 1501 1502 1503 1504 1504 1504 1504 1504 1504 1504 1504 1505 1505 1504 1505 1505 1505 1505 1506 1507 1507 1508 1508 1509 1509 1509 1509 1509 1510 1510 1509 1509 1509 1509 1509 1509 1509 1509 1508
1497 1498 1498 1499 1499 1499 1500 1500 1500 1500 1500 1501 1501 1501 1501 1501 1501 1501 1501 1501 1502 1502 1502 1503 1503 1504 1504 1505 1505 1505 1505 1505 1506 1506 1506 1506 1506 1507 1507 1507 1506 1506 1505
1495 1495 1496 1496 1497 1496 1496 1496 1497 1497 1497 1497 1497 1497 1497 1497 1498 1498 1498 1498 1498 1498 1499 1499 1500 1500 1500 1501 1501 1501 1501 1501 1502 1502 1502 1503 1503 1503 1503 1503 1503 1502 1502
1493 1493 1493 1494 1494 1494 1493 1493 1493 1494 1494 1494 1494 1494 1494 1494 1494 1494 1494 1494 1494 1494 1495 1495 1496 1496 1496 1496 1497 1497 1497 1497 1498 1498 1498 1499 1499 1499 1500 1500 1500 1499 1499
1490 1491 1491 1491 1491 1491 1490 1490 1490 1490 1490 1490 1490 1490 1490 1491 1491 1491 1491 1491 1490 1490 1490 1491 1491 1492 1492 1493 1493 1493 1493 1494 1494 1494 1494 1495 1495 1496 1496 1496 1497 1497 1496
1487 1488 1488 1487 1487 1487 1487 1487 1487 1486 1486 1486 1486 1486 1486 1487 1487 1487 1487 1487 1487 1487 1486 1487 1487 1488 1488 1489 1489 1489 1490 1490 1490 1491 1491 1491 1491 1492 1492 1493 1493 1493 1493
1484 1484 1484 1484 1484 1484 1483 1483 1482 1482 1482 1482 1482 1482 1482 1482 1483 1483 1483 1483 1483 1483 1483 1483 1484 1484 1484 1485 1485 1486 1486 1486 1486 1487 1487 1487 1488 1488 1489 1489 1489 1489 1490
1481 1481 1481 1481 1480 1480 1480 1480 1479 1479 1478 1479 1479 1479 1478 1478 1478 1479 1479 1479 1479 1479 1479 1479 1480 1480 1481 1481 1482 1482 1482 1483 1483 1483 1483 1484 1484 1484 1485 1485 1485 1485 1485
1478 1478 1478 1478 1477 1477 1477 1477 1476 1476 1476 1475 1475 1475 1475 1474 1474 1475 1475 1474 1474 1475 1475 1475 1475 1476 1476 1477 1477 1478 1478 1479 1479 1480 1480 1480 1480 1480 1480 1481 1481 1481 1481
1476 1475 1475 1474 1474 1474 1473 1473 1473 1473 1472 1472 1472 1472 1471 1471 1471 1471 1471 1471 1471 1471 1471 1471 1471 1471 1472 1472 1473 1473 1474 1474 1475 1475 1476 1476 1476 1476 1476 1477 1477 1477 1476
1474 1473 1473 1472 1471 1471 1470 1470 1469 1469 1469 1469 1468 1468 1468 1467 1467 1467 1467 1467 1467 1467 1467 1467 1467 1467 1468 1468 1469 1469 1469 1470 1471 1471 1471 1472 1472 1472 1472 1472 1472 1472 1472
1472 1471 1471 1470 1470 1469 1468 1467 1467 1466 1465 1465 1465 1464 1464 1463 1463 1463 1463 1463 1463 1463 1463 1463 1463 1464 1464 1464 1465 1465 1465 1466 1466 1467 1467 1467 1468 1468 1468 1468 1468 1468 1467
1470 1469 1468 1468 1467 1466 1466 1465 1464 1463 1462 1461 1461 1461 1461 1460 1459 1459 1459 1459 1458 1458 1459 1459 1460 1460 1460 1461 1461 1461 1461 1462 1462 1462 1462 1463 1463 1463 1464 1464 1464 1463 1463
1467 1467 1466 1465 1464 1463 1463 1462 1461 1460 1459 1458 1457 1457 1457 1456 1455 1455 1455 1455 1454 1454 1455 1455 1455 1456 1456 1456 1457 1457 1457 1457 1457 1457 1458 1458 1458 1459 1459 1459 1459 1459 1459
1465 1464 1463 1462 1461 1461 1460 1459 1458 1457 1456 1455 1455 1454 1454 1453 1452 1452 1452 1451 1451 1451 1451 1451 1451 1451 1452 1452 1452 1452 1452 1452 1453 1453 1453 1453 1453 1454 1454 1454 1454 1454 1454
1462 1461 1460 1459 1459 1458 1457 1456 1455 1454 1453 1453 1452 1451 1451 1450 1449 1449 1448 1448 1447 1447 1447 1447 1447 1447 1447 1447 1447 1447 1448 1448 1448 1449 1449 1449 1449 1449 1449 1449 1449 1449 1449
1459 1458 1457 1457 1456 1455 1454 1453 1452 1451 1450 1449 1449 1448 1448 1447 1446 1445 1445 1444 1444 1443 1443 1442 1442 1442 1442 1442 1442 1442 1443 1443 1443 1444 1444 1444 1444 1443 1443 1443 1443 1443 1443
1457 1456 1455 1454 1453 1452 1451 1450 1449 1448 1447 1446 1446 1445 1444 1443 1443 1442 1441 1440 1439 1439 1438 1438 1437 1437 1437 1437 1437 1437 1437 1437 1438 1438 1438 1438 1438 1438 1438 1438 1438 1438 1438
1454 1453 1452 1451 1450 1449 1448 1447 1446 1445 1444 1443 1442 1441 1441 1440 1439 1438 1437 1437 1436 1435 1434 1433 1432 1432 1432 1431 1431 1431 1431 1432 1432 1432 1433 1432 1432 1432 1433 1432 1432 1433 1433
1451 1450 1449 1448 1447 1446 1445 1444 1443 1442 1441 1440 1439 1439 1438 1437 1436 1435 1434 1433 1432 1430 1429 1428 1428 1427 1426 1426 1426 1426 1426 1426 1426 1427 1427 1426 1426 1426 1427 1427 1427 1427 1427